| time (UTC) | temp F | wind direction | speed knots | gust knots | rain 1hr in | rain 24hr in | rain mn in | humidity % | barometer mb |
| 20260505200052 | 58 | 215 | 2.6 | 11.3 | 0.00 | 0.00 | 0.00 | 38 | 1011.1 |
| 20260505194607 | 56 | 235 | 2.6 | 13.0 | 0.00 | 0.00 | 0.00 | 37 | 1011.2 |
| 20260505193052 | 58 | 296 | 2.6 | 9.6 | 0.00 | 0.00 | 0.00 | 38 | 1011.2 |
| 20260505191550 | 57 | 316 | 3.5 | 14.8 | 0.00 | 0.00 | 0.00 | 39 | 1011.3 |
| 20260505190051 | 56 | 275 | 2.6 | 14.8 | 0.00 | 0.00 | 0.00 | 38 | 1011.3 |
| 20260505184547 | 56 | 324 | 1.7 | 11.3 | 0.00 | 0.00 | 0.00 | 39 | 1011.1 |
| 20260505183046 | 55 | 343 | 3.5 | 14.8 | 0.00 | 0.00 | 0.00 | 38 | 1010.9 |
| 20260505181549 | 55 | 279 | 1.7 | 13.9 | 0.00 | 0.00 | 0.00 | 39 | 1010.9 |
| 20260505180044 | 55 | 298 | 2.6 | 17.4 | 0.00 | 0.00 | 0.00 | 39 | 1011.0 |
| 20260505174551 | 54 | 269 | 3.5 | 11.3 | 0.00 | 0.00 | 0.00 | 37 | 1011.1 |
| 20260505173042 | 54 | 296 | 1.7 | 13.9 | 0.00 | 0.00 | 0.00 | 41 | 1011.1 |
| 20260505171542 | 55 | 319 | 2.6 | 9.6 | 0.00 | 0.00 | 0.00 | 39 | 1011.1 |
| 20260505170040 | 55 | 264 | 1.7 | 10.4 | 0.00 | 0.00 | 0.00 | 39 | 1010.9 |
| 20260505164547 | 54 | 286 | 2.6 | 13.0 | 0.00 | 0.00 | 0.00 | 41 | 1011.2 |
| 20260505163050 | 54 | 229 | 1.7 | 14.8 | 0.00 | 0.00 | 0.00 | 43 | 1010.8 |
| 20260505161539 | 53 | 260 | 1.7 | 9.6 | 0.00 | 0.00 | 0.00 | 41 | 1010.9 |
| 20260505153037 | 51 | 342 | 0.9 | 14.8 | 0.00 | 0.00 | 0.00 | 49 | 1011.0 |
| 20260505151536 | 51 | 271 | 1.7 | 10.4 | 0.00 | 0.00 | 0.00 | 47 | 1010.8 |
| 20260505124530 | 46 | 256 | 0.0 | 0.0 | 0.00 | 0.00 | 0.00 | 59 | 1011.2 |
| 20260505123026 | 46 | 251 | 0.0 | 0.9 | 0.00 | 0.00 | 0.00 | 60 | 1010.9 |
| 20260505121525 | 45 | 269 | 0.0 | 0.9 | 0.00 | 0.00 | 0.00 | 64 | 1010.9 |
| 20260505120023 | 42 | 244 | 0.0 | 0.0 | 0.00 | 0.00 | 0.00 | 67 | 1010.5 |
| 20260505114521 | 40 | 248 | 0.0 | 0.0 | 0.00 | 0.00 | 0.00 | 73 | 1010.2 |
| 20260505113019 | 39 | 329 | 0.0 | 0.0 | 0.00 | 0.00 | 0.00 | 75 | 1009.3 |
| 20260505111519 | 40 | 229 | 0.0 | 0.0 | 0.00 | 0.00 | 0.00 | 71 | 1008.9 |
| 20260505101604 | 44 | 234 | 0.0 | 0.0 | 0.00 | 0.00 | 0.00 | 62 | 1008.8 |
| 20260505100058 | 44 | 244 | 0.0 | 0.0 | 0.00 | 0.00 | 0.00 | 58 | 1008.7 |
| 20260505094556 | 45 | 269 | 0.0 | 0.0 | 0.00 | 0.00 | 0.00 | 55 | 1008.6 |
| 20260505093053 | 46 | 266 | 0.0 | 0.0 | 0.00 | 0.00 | 0.00 | 54 | 1008.4 |
| 20260505091552 | 46 | 289 | 0.0 | 0.0 | 0.00 | 0.00 | 0.00 | 54 | 1008.5 |
| 20260505090049 | 46 | 298 | 0.0 | 0.0 | 0.00 | 0.00 | 0.00 | 54 | 1008.5 |
| 20260505084547 | 47 | 297 | 0.0 | 0.0 | 0.00 | 0.00 | 0.00 | 53 | 1008.3 |
| 20260505083046 | 47 | 324 | 0.0 | 5.2 | 0.00 | 0.00 | 0.00 | 53 | 1007.9 |
| 20260505081549 | 47 | 337 | 0.0 | 7.8 | 0.00 | 0.00 | 0.00 | 52 | 1007.8 |
| 20260505080044 | 48 | 327 | 1.7 | 11.3 | 0.00 | 0.00 | 0.00 | 51 | 1007.4 |
| 20260505074537 | 48 | 339 | 1.7 | 13.9 | 0.00 | 0.00 | 0.00 | 51 | 1007.0 |
| 20260505073044 | 48 | 336 | 2.6 | 18.2 | 0.00 | 0.00 | 0.00 | 52 | 1006.7 |
| 20260505071546 | 49 | 355 | 4.3 | 13.0 | 0.00 | 0.00 | 0.00 | 52 | 1006.6 |
| 20260505070029 | 50 | 333 | 2.6 | 17.4 | 0.00 | 0.00 | 0.00 | 52 | 1006.4 |
| 20260505064527 | 50 | 5 | 3.5 | 13.9 | 0.00 | 0.00 | 0.00 | 51 | 1006.1 |
| 20260505063025 | 51 | 5 | 2.6 | 15.6 | 0.00 | 0.00 | 0.00 | 52 | 1006.0 |
| 20260505061520 | 51 | 360 | 2.6 | 12.2 | 0.00 | 0.00 | 0.00 | 53 | 1006.0 |
| 20260505060018 | 52 | 344 | 1.7 | 14.8 | 0.00 | 0.00 | 0.00 | 54 | 1006.0 |
| 20260505054515 | 53 | 360 | 5.2 | 14.8 | 0.00 | 0.00 | 0.00 | 53 | 1005.8 |
| 20260505053012 | 53 | 334 | 5.2 | 11.3 | 0.00 | 0.00 | 0.00 | 54 | 1005.7 |
| 20260505051509 | 55 | 350 | 2.6 | 12.2 | 0.00 | 0.00 | 0.00 | 51 | 1005.1 |
| 20260505041504 | 56 | 340 | 2.6 | 13.0 | 0.00 | 0.00 | 0.00 | 49 | 1004.6 |
| 20260505040005 | 57 | 333 | 2.6 | 8.7 | 0.00 | 0.00 | 0.00 | 48 | 1004.2 |
| 20260505034502 | 58 | 325 | 1.7 | 9.6 | 0.00 | 0.00 | 0.00 | 47 | 1004.2 |
| 20260505033001 | 58 | 330 | 1.7 | 5.2 | 0.00 | 0.00 | 0.00 | 46 | 1004.0 |
| 20260505031603 | 58 | 5 | 0.9 | 8.7 | 0.00 | 0.00 | 0.00 | 45 | 1003.7 |
| 20260505030105 | 58 | 292 | 0.9 | 4.3 | 0.00 | 0.00 | 0.00 | 44 | 1003.7 |
| 20260505024601 | 59 | 302 | 0.0 | 0.0 | 0.00 | 0.00 | 0.00 | 42 | 1003.5 |
| 20260505023109 | 60 | 284 | 1.7 | 7.0 | 0.00 | 0.00 | 0.00 | 40 | 1002.9 |
| 20260505021601 | 60 | 290 | 2.6 | 8.7 | 0.00 | 0.00 | 0.00 | 38 | 1002.3 |
| 20260505014559 | 61 | 275 | 2.6 | 11.3 | 0.00 | 0.00 | 0.00 | 37 | 1001.4 |
| 20260505013059 | 62 | 287 | 1.7 | 13.0 | 0.00 | 0.00 | 0.00 | 37 | 1001.7 |
| 20260505011557 | 63 | 273 | 0.9 | 12.2 | 0.00 | 0.00 | 0.00 | 36 | 1001.4 |
| 20260505004554 | 64 | 312 | 0.9 | 19.1 | 0.00 | 0.00 | 0.00 | 39 | 1000.4 |
| 20260505003059 | 66 | 294 | 2.6 | 11.3 | 0.00 | 0.00 | 0.00 | 37 | 1000.4 |
| 20260505001553 | 67 | 299 | 3.5 | 14.8 | 0.00 | 0.00 | 0.00 | 37 | 1000.1 |
| 20260504234552 | 70 | 279 | 1.7 | 19.1 | 0.00 | 0.00 | 0.00 | 36 | 999.6 |
| 20260504233054 | 73 | 334 | 2.6 | 11.3 | 0.00 | 0.00 | 0.00 | 37 | 999.4 |
| 20260504231551 | 74 | 314 | 3.5 | 9.6 | 0.00 | 0.00 | 0.00 | 37 | 999.1 |
| 20260504230051 | 74 | 316 | 1.7 | 13.9 | 0.00 | 0.00 | 0.00 | 38 | 999.0 |
| 20260504224551 | 75 | 350 | 2.6 | 12.2 | 0.00 | 0.00 | 0.00 | 39 | 998.8 |
| 20260504223050 | 78 | 250 | 3.5 | 14.8 | 0.00 | 0.00 | 0.00 | 40 | 998.4 |
| 20260504221551 | 78 | 241 | 2.6 | 17.4 | 0.00 | 0.00 | 0.00 | 40 | 998.2 |
| 20260504220108 | 79 | 297 | 3.5 | 13.9 | 0.00 | 0.00 | 0.00 | 39 | 997.9 |
| 20260504214553 | 80 | 288 | 2.6 | 10.4 | 0.00 | 0.00 | 0.00 | 38 | 997.9 |
| 20260504213053 | 80 | 331 | 2.6 | 11.3 | 0.00 | 0.00 | 0.00 | 37 | 997.6 |
| 20260504211553 | 79 | 267 | 2.6 | 12.2 | 0.00 | 0.00 | 0.00 | 36 | 997.6 |
| 20260504210044 | 79 | 240 | 2.6 | 13.0 | 0.00 | 0.00 | 0.00 | 39 | 997.7 |
| 20260504204543 | 79 | 281 | 3.5 | 18.2 | 0.00 | 0.00 | 0.00 | 36 | 997.8 |
| 20260504203042 | 79 | 225 | 6.1 | 20.0 | 0.00 | 0.00 | 0.00 | 36 | 997.9 |
| 20260504201540 | 80 | 225 | 2.6 | 15.6 | 0.00 | 0.00 | 0.00 | 34 | 998.2 |